This is the latest recevied weather packets stored in our database for station/object 9A7DI-13. If no packets are shown the sender has not sent any weather packets the latest 10 day(s).
| Time | Temp. | Humidity | Pressure | Rain* | Wind** | Luminosity | Snow |
|---|---|---|---|---|---|---|---|
| 1777294042 | 19.44° C | 26% | 1028.9 hPa | - | - | - | - |
| 1777293442 | 19.44° C | 28% | 1029 hPa | - | - | - | - |
| 1777292842 | 19.44° C | 27% | 1029.2 hPa | - | - | - | - |
| 1777292242 | 19.44° C | 29% | 1029.3 hPa | - | - | - | - |
| 1777291642 | 19.44° C | 29% | 1029.5 hPa | - | - | - | - |
| 1777291043 | 19.44° C | 29% | 1029.6 hPa | - | - | - | - |
| 1777290443 | 19.44° C | 29% | 1029.8 hPa | - | - | - | - |
| 1777289843 | 20° C | 29% | 1029.9 hPa | - | - | - | - |
| 1777289243 | 20° C | 32% | 1030 hPa | - | - | - | - |
| 1777288643 | 20° C | 30% | 1030.1 hPa | - | - | - | - |
| 1777288042 | 19.44° C | 33% | 1030.3 hPa | - | - | - | - |
| 1777287443 | 20° C | 33% | 1030.5 hPa | - | - | - | - |
| 1777286843 | 20° C | 34% | 1030.6 hPa | - | - | - | - |
| 1777286242 | 20° C | 29% | 1030.8 hPa | - | - | - | - |
| 1777285643 | 18.89° C | 31% | 1030.8 hPa | - | - | - | - |
| 1777285043 | 19.44° C | 34% | 1030.9 hPa | - | - | - | - |
| 1777284442 | 19.44° C | 31% | 1031.1 hPa | - | - | - | - |
| 1777283843 | 19.44° C | 31% | 1031.2 hPa | - | - | - | - |
| 1777283243 | 19.44° C | 30% | 1031.2 hPa | - | - | - | - |
| 1777282643 | 18.89° C | 32% | 1031.4 hPa | - | - | - | - |
| 1777282043 | 18.89° C | 32% | 1031.4 hPa | - | - | - | - |
| 1777281443 | 18.89° C | 32% | 1031.7 hPa | - | - | - | - |
| 1777280843 | 17.78° C | 34% | 1031.8 hPa | - | - | - | - |
| 1777280243 | 17.78° C | 35% | 1031.9 hPa | - | - | - | - |
| 1777279643 | 17.22° C | 35% | 1032 hPa | - | - | - | - |
* Rain since midnight (hover to see other rain measurements)
** Current wind speed in m/s (hover to see current wind gust speed)